Station Historical Data
Daily Summary for July 22, 2017 Units:  English    Metric   Both
« Previous Day
Next Day »
Daily Weekly Monthly Yearly Custom
  High: Low: Average:
Temperature: 88.1 °F 65.4 °F 75.6 °F
Dew Point: 58.6 °F 48.7 °F 53.4 °F
Humidity: 68 % 30 % 47 %
Wind Speed: 7.0 mph 0.0 mph 1 mph
Wind Gust: 11.0 mph - -
Wind:- - SSE
Pressure: 29.92 in 29.84 in -
Precipitation: 0.00 in    
Historical Graphs
 
 
Tabular Data for July 22, 2017
Time Temperature Dew Point Pressure Wind Wind Speed Wind Gust Humidity Rainfall Rate (Hourly) solar
00:01 69.6 °F 50.7 °F 29.91 in ENE 1.0 mph 6.0 mph 51 % 0.00 in 0.00 W/m2
00:06 69.5 °F 50.6 °F 29.91 in East 4.0 mph 6.0 mph 51 % 0.00 in 0.00 W/m2
00:12 69.5 °F 50.6 °F 29.91 in East 3.0 mph 6.0 mph 51 % 0.00 in 0.00 W/m2
00:17 69.4 °F 50.5 °F 29.91 in East 4.0 mph 7.0 mph 51 % 0.00 in 0.00 W/m2
00:22 69.4 °F 50.5 °F 29.91 in East 5.0 mph 5.0 mph 51 % 0.00 in 0.00 W/m2
00:27 69.4 °F 50.5 °F 29.91 in East 3.0 mph 5.0 mph 51 % 0.00 in 0.00 W/m2
00:32 69.3 °F 50.4 °F 29.91 in East 3.0 mph 6.0 mph 51 % 0.00 in 0.00 W/m2
00:37 69.2 °F 50.3 °F 29.91 in East 2.0 mph 5.0 mph 51 % 0.00 in 0.00 W/m2
00:42 69.2 °F 50.3 °F 29.91 in East 5.0 mph 6.0 mph 51 % 0.00 in 0.00 W/m2
00:47 69.1 °F 50.2 °F 29.90 in East 5.0 mph 6.0 mph 51 % 0.00 in 0.00 W/m2
00:52 69.0 °F 50.1 °F 29.91 in East 7.0 mph 9.0 mph 51 % 0.00 in 0.00 W/m2
00:57 69.0 °F 50.1 °F 29.91 in East 2.0 mph 7.0 mph 51 % 0.00 in 0.00 W/m2
01:02 68.9 °F 50.0 °F 29.91 in East 4.0 mph 9.0 mph 51 % 0.00 in 0.00 W/m2
01:07 68.9 °F 50.0 °F 29.91 in East 1.0 mph 8.0 mph 51 % 0.00 in 0.00 W/m2
01:12 68.8 °F 50.0 °F 29.91 in East 4.0 mph 9.0 mph 51 % 0.00 in 0.00 W/m2
01:17 68.8 °F 50.0 °F 29.91 in East 5.0 mph 8.0 mph 51 % 0.00 in 0.00 W/m2
01:22 68.8 °F 50.0 °F 29.91 in ESE 4.0 mph 7.0 mph 51 % 0.00 in 0.00 W/m2
01:27 68.8 °F 50.0 °F 29.90 in ESE 5.0 mph 6.0 mph 51 % 0.00 in 0.00 W/m2
01:32 68.8 °F 50.0 °F 29.90 in Calm   5.0 mph 51 % 0.00 in 0.00 W/m2
01:37 68.7 °F 49.9 °F 29.90 in ESE 1.0 mph 6.0 mph 51 % 0.00 in 0.00 W/m2
01:42 68.7 °F 49.3 °F 29.90 in Calm   7.0 mph 50 % 0.00 in 0.00 W/m2
01:47 68.6 °F 49.8 °F 29.90 in East 6.0 mph 6.0 mph 51 % 0.00 in 0.00 W/m2
01:52 68.6 °F 49.8 °F 29.89 in East 2.0 mph 7.0 mph 51 % 0.00 in 0.00 W/m2
01:57 68.5 °F 49.7 °F 29.89 in ESE 2.0 mph 11.0 mph 51 % 0.00 in 0.00 W/m2
02:02 68.4 °F 49.6 °F 29.89 in ESE 4.0 mph 7.0 mph 51 % 0.00 in 0.00 W/m2
02:07 68.3 °F 49.5 °F 29.89 in Calm   9.0 mph 51 % 0.00 in 0.00 W/m2
02:12 68.2 °F 49.4 °F 29.89 in ESE 7.0 mph 7.0 mph 51 % 0.00 in 0.00 W/m2
02:17 68.1 °F 49.3 °F 29.89 in ESE 6.0 mph 8.0 mph 51 % 0.00 in 0.00 W/m2
02:22 68.1 °F 49.3 °F 29.89 in ESE 6.0 mph 6.0 mph 51 % 0.00 in 0.00 W/m2
02:27 68.0 °F 49.2 °F 29.89 in ESE 1.0 mph 8.0 mph 51 % 0.00 in 0.00 W/m2
02:32 67.9 °F 49.1 °F 29.89 in ESE 5.0 mph 7.0 mph 51 % 0.00 in 0.00 W/m2
02:38 67.9 °F 49.7 °F 29.88 in ESE 4.0 mph 5.0 mph 52 % 0.00 in 0.00 W/m2
02:43 67.8 °F 49.5 °F 29.89 in ESE 1.0 mph 6.0 mph 52 % 0.00 in 0.00 W/m2
02:48 67.7 °F 49.5 °F 29.88 in ESE 6.0 mph 6.0 mph 52 % 0.00 in 0.00 W/m2
02:53 67.6 °F 49.4 °F 29.88 in ESE 5.0 mph 7.0 mph 52 % 0.00 in 0.00 W/m2
02:58 67.6 °F 49.4 °F 29.88 in Calm   5.0 mph 52 % 0.00 in 0.00 W/m2
03:03 67.4 °F 49.2 °F 29.88 in Calm   1.0 mph 52 % 0.00 in 0.00 W/m2
03:08 67.3 °F 49.1 °F 29.88 in ESE 4.0 mph 5.0 mph 52 % 0.00 in 0.00 W/m2
03:13 67.2 °F 49.0 °F 29.88 in ESE 2.0 mph 4.0 mph 52 % 0.00 in 0.00 W/m2
03:18 67.2 °F 49.0 °F 29.88 in ESE 5.0 mph 5.0 mph 52 % 0.00 in 0.00 W/m2
03:23 67.1 °F 48.9 °F 29.88 in ESE 4.0 mph 5.0 mph 52 % 0.00 in 0.00 W/m2
03:28 67.0 °F 49.3 °F 29.88 in Calm   4.0 mph 53 % 0.00 in 0.00 W/m2
03:33 66.9 °F 49.2 °F 29.88 in ESE 4.0 mph 4.0 mph 53 % 0.00 in 0.00 W/m2
03:38 66.8 °F 49.1 °F 29.88 in ESE 4.0 mph 5.0 mph 53 % 0.00 in 0.00 W/m2
03:43 66.7 °F 49.0 °F 29.88 in ESE 2.0 mph 4.0 mph 53 % 0.00 in 0.00 W/m2
03:48 66.6 °F 49.0 °F 29.88 in Calm     53 % 0.00 in 0.00 W/m2
03:53 66.3 °F 48.7 °F 29.88 in Calm   4.0 mph 53 % 0.00 in 0.00 W/m2
03:58 66.2 °F 49.1 °F 29.88 in Calm     54 % 0.00 in 0.00 W/m2
04:03 66.1 °F 49.0 °F 29.88 in Calm     54 % 0.00 in 0.00 W/m2
04:08 66.0 °F 49.4 °F 29.88 in Calm   2.0 mph 55 % 0.00 in 0.00 W/m2
04:13 65.9 °F 49.3 °F 29.87 in ESE 1.0 mph 4.0 mph 55 % 0.00 in 0.00 W/m2
04:18 65.8 °F 49.2 °F 29.88 in ESE 2.0 mph 5.0 mph 55 % 0.00 in 0.00 W/m2
04:23 65.7 °F 49.1 °F 29.87 in Calm   1.0 mph 55 % 0.00 in 0.00 W/m2
04:28 65.7 °F 49.6 °F 29.87 in Calm   5.0 mph 56 % 0.00 in 0.00 W/m2
04:33 65.7 °F 49.6 °F 29.87 in Calm   1.0 mph 56 % 0.00 in 0.00 W/m2
04:38 65.7 °F 49.6 °F 29.87 in Calm     56 % 0.00 in 0.00 W/m2
04:43 65.7 °F 49.6 °F 29.87 in East 2.0 mph 4.0 mph 56 % 0.00 in 0.00 W/m2
04:48 65.8 °F 49.7 °F 29.87 in East 5.0 mph 5.0 mph 56 % 0.00 in 0.00 W/m2
04:53 65.8 °F 49.7 °F 29.87 in Calm   4.0 mph 56 % 0.00 in 0.00 W/m2
04:58 65.8 °F 49.7 °F 29.87 in Calm   5.0 mph 56 % 0.00 in 0.00 W/m2
05:03 65.8 °F 49.7 °F 29.87 in Calm     56 % 0.00 in 0.00 W/m2
05:08 65.8 °F 50.2 °F 29.87 in Calm     57 % 0.00 in 0.00 W/m2
05:13 65.8 °F 50.2 °F 29.87 in Calm     57 % 0.00 in 0.00 W/m2
05:18 65.8 °F 50.2 °F 29.87 in Calm     57 % 0.00 in 0.00 W/m2
05:23 65.8 °F 50.2 °F 29.87 in Calm   1.0 mph 57 % 0.00 in 0.00 W/m2
05:28 65.7 °F 50.1 °F 29.87 in East 4.0 mph 6.0 mph 57 % 0.00 in 0.00 W/m2
05:33 65.6 °F 50.4 °F 29.87 in East 3.0 mph 5.0 mph 58 % 0.00 in 0.00 W/m2
05:38 65.5 °F 50.3 °F 29.87 in ENE 2.0 mph 6.0 mph 58 % 0.00 in 0.00 W/m2
05:43 65.4 °F 50.2 °F 29.87 in ENE 3.0 mph 5.0 mph 58 % 0.00 in 0.00 W/m2
05:45 65.4 °F 50.2 °F 29.87 in ENE 3.0 mph 5.0 mph 58 % 0.00 in 0.00 W/m2
05:50 65.4 °F 50.7 °F 29.87 in ENE 3.0 mph 3.0 mph 59 % 0.00 in 0.00 W/m2
05:55 65.5 °F 50.8 °F 29.88 in ENE 2.0 mph 6.0 mph 59 % 0.00 in 5.00 W/m2
06:00 65.5 °F 50.8 °F 29.88 in Calm   5.0 mph 59 % 0.00 in 7.00 W/m2
06:05 65.6 °F 50.9 °F 29.88 in Calm   3.0 mph 59 % 0.00 in 9.00 W/m2
06:10 65.6 °F 50.9 °F 29.88 in Calm   1.0 mph 59 % 0.00 in 12.00 W/m2
06:15 65.7 °F 51.0 °F 29.88 in Calm   1.0 mph 59 % 0.00 in 14.00 W/m2
06:20 65.8 °F 51.1 °F 29.88 in NE 1.0 mph 1.0 mph 59 % 0.00 in 18.00 W/m2
06:25 65.8 °F 51.5 °F 29.88 in Calm   1.0 mph 60 % 0.00 in 21.00 W/m2
06:30 65.9 °F 51.6 °F 29.88 in Calm     60 % 0.00 in 28.00 W/m2
06:35 65.9 °F 51.6 °F 29.88 in Calm   1.0 mph 60 % 0.00 in 37.00 W/m2
06:40 65.9 °F 51.6 °F 29.88 in Calm     60 % 0.00 in 47.00 W/m2
06:45 65.9 °F 52.1 °F 29.88 in Calm     61 % 0.00 in 58.00 W/m2
06:50 65.9 °F 52.1 °F 29.88 in Calm     61 % 0.00 in 72.00 W/m2
06:55 65.9 °F 52.5 °F 29.88 in Calm     62 % 0.00 in 86.00 W/m2
07:00 65.9 °F 53.0 °F 29.89 in Calm     63 % 0.00 in 104.00 W/m2
07:05 65.8 °F 52.9 °F 29.89 in Calm     63 % 0.00 in 121.00 W/m2
07:10 65.8 °F 53.3 °F 29.89 in Calm     64 % 0.00 in 137.00 W/m2
07:15 65.8 °F 53.7 °F 29.89 in Calm     65 % 0.00 in 156.00 W/m2
07:20 65.8 °F 53.7 °F 29.89 in Calm     65 % 0.00 in 176.00 W/m2
07:25 65.8 °F 54.5 °F 29.89 in Calm     67 % 0.00 in 195.00 W/m2
07:30 65.8 °F 54.5 °F 29.89 in Calm     67 % 0.00 in 214.00 W/m2
07:35 65.8 °F 55.0 °F 29.89 in Calm     68 % 0.00 in 234.00 W/m2
07:40 65.8 °F 54.5 °F 29.89 in Calm     67 % 0.00 in 253.00 W/m2
07:45 65.9 °F 54.7 °F 29.89 in Calm   1.0 mph 67 % 0.00 in 271.00 W/m2
07:50 65.9 °F 54.7 °F 29.89 in Calm   1.0 mph 67 % 0.00 in 288.00 W/m2
07:56 66.0 °F 54.3 °F 29.90 in NE 1.0 mph 3.0 mph 66 % 0.00 in 304.00 W/m2
07:59 66.0 °F 54.3 °F 29.90 in Calm   2.0 mph 66 % 0.00 in 315.00 W/m2
08:04 66.1 °F 54.4 °F 29.90 in Calm     66 % 0.00 in 330.00 W/m2
08:09 66.2 °F 54.5 °F 29.90 in Calm     66 % 0.00 in 346.00 W/m2
08:14 66.3 °F 54.6 °F 29.90 in Calm   1.0 mph 66 % 0.00 in 362.00 W/m2
08:19 66.5 °F 55.2 °F 29.90 in Calm     67 % 0.00 in 374.00 W/m2
08:24 66.6 °F 54.9 °F 29.90 in Calm     66 % 0.00 in 392.00 W/m2
08:29 66.9 °F 55.6 °F 29.90 in Calm   1.0 mph 67 % 0.00 in 406.00 W/m2
08:34 67.1 °F 55.8 °F 29.90 in Calm   1.0 mph 67 % 0.00 in 424.00 W/m2
08:39 67.4 °F 56.1 °F 29.91 in Calm     67 % 0.00 in 439.00 W/m2
08:44 67.6 °F 56.3 °F 29.91 in Calm     67 % 0.00 in 452.00 W/m2
08:49 67.8 °F 55.6 °F 29.91 in Calm     65 % 0.00 in 468.00 W/m2
08:55 68.0 °F 55.4 °F 29.91 in Calm   1.0 mph 64 % 0.00 in 485.00 W/m2
09:00 68.3 °F 55.7 °F 29.91 in Calm     64 % 0.00 in 499.00 W/m2
09:05 68.6 °F 56.0 °F 29.91 in Calm     64 % 0.00 in 517.00 W/m2
09:10 68.8 °F 55.3 °F 29.91 in Calm   1.0 mph 62 % 0.00 in 527.00 W/m2
09:15 69.2 °F 55.6 °F 29.91 in Calm   3.0 mph 62 % 0.00 in 545.00 W/m2
09:20 69.5 °F 54.1 °F 29.91 in Calm   4.0 mph 58 % 0.00 in 557.00 W/m2
09:25 69.9 °F 54.5 °F 29.91 in Calm   1.0 mph 58 % 0.00 in 571.00 W/m2
09:30 70.5 °F 55.5 °F 29.92 in Calm   1.0 mph 59 % 0.00 in 585.00 W/m2
09:35 71.1 °F 54.6 °F 29.92 in Calm   4.0 mph 56 % 0.00 in 601.00 W/m2
09:40 71.7 °F 54.7 °F 29.91 in Calm   5.0 mph 55 % 0.00 in 613.00 W/m2
09:45 72.4 °F 55.8 °F 29.92 in Calm   2.0 mph 56 % 0.00 in 626.00 W/m2
09:46 72.5 °F 55.4 °F 29.91 in Calm     55 % 0.00 in 629.00 W/m2
09:51 72.9 °F 55.8 °F 29.92 in Calm   2.0 mph 55 % 0.00 in 643.00 W/m2
09:56 73.1 °F 56.0 °F 29.92 in Calm   1.0 mph 55 % 0.00 in 652.00 W/m2
10:01 73.3 °F 56.2 °F 29.92 in Calm     55 % 0.00 in 663.00 W/m2
10:06 73.6 °F 53.8 °F 29.92 in Calm   1.0 mph 50 % 0.00 in 673.00 W/m2
10:07 73.7 °F 53.9 °F 29.92 in WNW 1.0 mph 2.0 mph 50 % 0.00 in 677.00 W/m2
10:12 74.1 °F 55.4 °F 29.92 in Calm   2.0 mph 52 % 0.00 in 687.00 W/m2
10:17 74.4 °F 55.7 °F 29.92 in Calm     52 % 0.00 in 703.00 W/m2
10:22 74.8 °F 56.0 °F 29.92 in West 4.0 mph 4.0 mph 52 % 0.00 in 714.00 W/m2
10:27 75.1 °F 56.3 °F 29.92 in Calm   6.0 mph 52 % 0.00 in 726.00 W/m2
10:32 75.2 °F 55.3 °F 29.92 in Calm   3.0 mph 50 % 0.00 in 737.00 W/m2
10:37 75.5 °F 55.0 °F 29.92 in SW 2.0 mph 2.0 mph 49 % 0.00 in 749.00 W/m2
10:42 75.7 °F 55.8 °F 29.92 in Calm     50 % 0.00 in 758.00 W/m2
10:47 76.0 °F 56.0 °F 29.92 in Calm   3.0 mph 50 % 0.00 in 772.00 W/m2
10:52 76.4 °F 54.7 °F 29.92 in Calm   1.0 mph 47 % 0.00 in 780.00 W/m2
10:57 76.6 °F 56.0 °F 29.92 in SSW 1.0 mph 2.0 mph 49 % 0.00 in 788.00 W/m2
11:02 76.8 °F 55.1 °F 29.92 in Calm   1.0 mph 47 % 0.00 in 796.00 W/m2
11:07 77.3 °F 57.2 °F 29.92 in Calm   4.0 mph 50 % 0.00 in 807.00 W/m2
11:12 77.5 °F 55.7 °F 29.92 in Calm   1.0 mph 47 % 0.00 in 817.00 W/m2
11:17 77.8 °F 56.0 °F 29.92 in Calm   1.0 mph 47 % 0.00 in 823.00 W/m2
11:22 78.2 °F 56.9 °F 29.92 in Calm   2.0 mph 48 % 0.00 in 833.00 W/m2
11:27 78.5 °F 56.6 °F 29.92 in Calm   3.0 mph 47 % 0.00 in 838.00 W/m2
11:32 78.9 °F 56.4 °F 29.92 in Calm   4.0 mph 46 % 0.00 in 849.00 W/m2
11:38 79.2 °F 56.7 °F 29.92 in Calm   1.0 mph 46 % 0.00 in 854.00 W/m2
11:43 79.6 °F 57.0 °F 29.92 in SW 1.0 mph 2.0 mph 46 % 0.00 in 865.00 W/m2
11:48 80.0 °F 54.9 °F 29.92 in Calm   3.0 mph 42 % 0.00 in 870.00 W/m2
11:53 80.5 °F 56.0 °F 29.91 in Calm   5.0 mph 43 % 0.00 in 875.00 W/m2
11:58 80.8 °F 55.6 °F 29.91 in SW 4.0 mph 6.0 mph 42 % 0.00 in 881.00 W/m2
12:03 80.9 °F 56.3 °F 29.91 in South 7.0 mph 8.0 mph 43 % 0.00 in 884.00 W/m2
12:08 81.4 °F 54.8 °F 29.91 in SSE 4.0 mph 7.0 mph 40 % 0.00 in 891.00 W/m2
12:13 81.9 °F 54.5 °F 29.91 in Calm     39 % 0.00 in 895.00 W/m2
12:18 82.4 °F 54.3 °F 29.91 in Calm   5.0 mph 38 % 0.00 in 898.00 W/m2
12:23 82.9 °F 56.1 °F 29.91 in Calm   8.0 mph 40 % 0.00 in 902.00 W/m2
12:24 83.1 °F 55.6 °F 29.91 in Calm   8.0 mph 39 % 0.00 in 904.00 W/m2
12:29 83.5 °F 56.7 °F 29.91 in Calm   4.0 mph 40 % 0.00 in 905.00 W/m2
12:34 83.7 °F 56.1 °F 29.91 in Calm   5.0 mph 39 % 0.00 in 909.00 W/m2
12:39 83.5 °F 54.5 °F 29.91 in Calm   7.0 mph 37 % 0.00 in 912.00 W/m2
12:44 83.6 °F 56.0 °F 29.91 in Calm   3.0 mph 39 % 0.00 in 911.00 W/m2
12:49 83.9 °F 56.3 °F 29.91 in Calm   4.0 mph 39 % 0.00 in 912.00 W/m2
12:54 84.2 °F 55.9 °F 29.90 in Calm   8.0 mph 38 % 0.00 in 914.00 W/m2
12:59 84.7 °F 56.3 °F 29.90 in WSW 1.0 mph 6.0 mph 38 % 0.00 in 914.00 W/m2
13:04 85.0 °F 57.3 °F 29.90 in SW 5.0 mph 8.0 mph 39 % 0.00 in 914.00 W/m2
13:10 85.3 °F 55.3 °F 29.91 in SW 4.0 mph 4.0 mph 36 % 0.00 in 916.00 W/m2
13:15 85.3 °F 55.3 °F 29.91 in WSW 6.0 mph 6.0 mph 36 % 0.00 in 914.00 W/m2
13:20 85.5 °F 54.0 °F 29.91 in Calm   5.0 mph 34 % 0.00 in 914.00 W/m2
13:25 85.6 °F 54.8 °F 29.91 in WSW 3.0 mph 3.0 mph 35 % 0.00 in 912.00 W/m2
13:30 85.6 °F 55.6 °F 29.90 in WSW 3.0 mph 3.0 mph 36 % 0.00 in 912.00 W/m2
13:35 85.5 °F 55.5 °F 29.90 in Calm   5.0 mph 36 % 0.00 in 907.00 W/m2
13:40 85.5 °F 56.3 °F 29.90 in WSW 4.0 mph 4.0 mph 37 % 0.00 in 905.00 W/m2
13:45 85.7 °F 56.5 °F 29.90 in Calm   5.0 mph 37 % 0.00 in 900.00 W/m2
13:50 86.0 °F 56.7 °F 29.90 in Calm   6.0 mph 37 % 0.00 in 900.00 W/m2
13:55 86.1 °F 55.3 °F 29.90 in West 4.0 mph 6.0 mph 35 % 0.00 in 896.00 W/m2
14:00 86.3 °F 56.2 °F 29.90 in Calm   5.0 mph 36 % 0.00 in 891.00 W/m2
14:05 86.6 °F 55.7 °F 29.89 in Calm   8.0 mph 35 % 0.00 in 888.00 W/m2
14:06 86.6 °F 56.5 °F 29.90 in SW 2.0 mph 6.0 mph 36 % 0.00 in 888.00 W/m2
14:11 87.1 °F 56.9 °F 29.89 in Calm     36 % 0.00 in 882.00 W/m2
14:16 87.3 °F 55.5 °F 29.89 in Calm     34 % 0.00 in 877.00 W/m2
14:21 87.3 °F 57.1 °F 29.89 in SSW 1.0 mph 6.0 mph 36 % 0.00 in 872.00 W/m2
14:26 87.6 °F 55.8 °F 29.89 in Calm     34 % 0.00 in 867.00 W/m2
14:31 88.0 °F 56.9 °F 29.89 in Calm     35 % 0.00 in 860.00 W/m2
14:36 88.1 °F 57.0 °F 29.89 in Calm     35 % 0.00 in 853.00 W/m2
14:41 88.1 °F 57.8 °F 29.89 in Calm   2.0 mph 36 % 0.00 in 849.00 W/m2
14:46 87.9 °F 56.9 °F 29.89 in Calm   1.0 mph 35 % 0.00 in 844.00 W/m2
14:51 87.6 °F 55.0 °F 29.88 in West 5.0 mph 5.0 mph 33 % 0.00 in 835.00 W/m2
14:56 87.5 °F 54.9 °F 29.88 in West 4.0 mph 4.0 mph 33 % 0.00 in 826.00 W/m2
15:01 87.2 °F 55.4 °F 29.88 in Calm     34 % 0.00 in 817.00 W/m2
15:06 87.0 °F 54.5 °F 29.88 in Calm   2.0 mph 33 % 0.00 in 812.00 W/m2
15:11 86.9 °F 55.2 °F 29.88 in WNW 2.0 mph 4.0 mph 34 % 0.00 in 803.00 W/m2
15:16 86.8 °F 54.3 °F 29.88 in WNW 1.0 mph 5.0 mph 33 % 0.00 in 793.00 W/m2
15:21 86.7 °F 55.0 °F 29.88 in Calm     34 % 0.00 in 786.00 W/m2
15:26 86.8 °F 53.4 °F 29.88 in Calm     32 % 0.00 in 773.00 W/m2
15:31 86.9 °F 55.2 °F 29.88 in Calm     34 % 0.00 in 763.00 W/m2
15:36 87.1 °F 52.8 °F 29.87 in West 2.0 mph 5.0 mph 31 % 0.00 in 754.00 W/m2
15:41 87.3 °F 53.0 °F 29.87 in Calm     31 % 0.00 in 744.00 W/m2
15:46 87.6 °F 54.1 °F 29.87 in Calm     32 % 0.00 in 731.00 W/m2
15:51 87.7 °F 53.3 °F 29.87 in WSW 3.0 mph 4.0 mph 31 % 0.00 in 721.00 W/m2
15:56 87.8 °F 52.5 °F 29.87 in Calm   1.0 mph 30 % 0.00 in 710.00 W/m2
16:02 87.8 °F 55.2 °F 29.87 in Calm   2.0 mph 33 % 0.00 in 698.00 W/m2
16:07 87.7 °F 53.3 °F 29.86 in Calm   5.0 mph 31 % 0.00 in 687.00 W/m2
16:12 87.6 °F 53.3 °F 29.86 in Calm   1.0 mph 31 % 0.00 in 675.00 W/m2
16:17 87.4 °F 54.0 °F 29.86 in Calm     32 % 0.00 in 670.00 W/m2
16:22 87.4 °F 53.1 °F 29.86 in Calm   1.0 mph 31 % 0.00 in 650.00 W/m2
16:27 87.3 °F 53.9 °F 29.86 in Calm     32 % 0.00 in 635.00 W/m2
16:32 87.3 °F 54.7 °F 29.85 in Calm   1.0 mph 33 % 0.00 in 622.00 W/m2
16:37 87.2 °F 52.0 °F 29.86 in Calm   4.0 mph 30 % 0.00 in 606.00 W/m2
16:38 87.1 °F 52.8 °F 29.86 in West 3.0 mph 4.0 mph 31 % 0.00 in 601.00 W/m2
16:43 87.0 °F 53.6 °F 29.85 in Calm   4.0 mph 32 % 0.00 in 587.00 W/m2
16:48 87.0 °F 51.8 °F 29.85 in Calm   1.0 mph 30 % 0.00 in 575.00 W/m2
16:53 87.1 °F 53.7 °F 29.85 in Calm   1.0 mph 32 % 0.00 in 561.00 W/m2
16:58 87.2 °F 54.6 °F 29.85 in Calm   3.0 mph 33 % 0.00 in 545.00 W/m2
17:03 87.1 °F 53.7 °F 29.85 in Calm   3.0 mph 32 % 0.00 in 529.00 W/m2
17:08 87.1 °F 55.4 °F 29.85 in Calm   1.0 mph 34 % 0.00 in 512.00 W/m2
17:13 87.0 °F 52.7 °F 29.85 in Calm     31 % 0.00 in 503.00 W/m2
17:19 87.0 °F 54.5 °F 29.85 in Calm   1.0 mph 33 % 0.00 in 489.00 W/m2
17:24 86.9 °F 54.4 °F 29.85 in Calm   6.0 mph 33 % 0.00 in 471.00 W/m2
17:29 86.8 °F 53.4 °F 29.85 in Calm   1.0 mph 32 % 0.00 in 455.00 W/m2
17:34 86.9 °F 54.4 °F 29.85 in Calm   5.0 mph 33 % 0.00 in 441.00 W/m2
17:39 86.9 °F 55.2 °F 29.85 in Calm   1.0 mph 34 % 0.00 in 427.00 W/m2
17:44 86.9 °F 56.0 °F 29.85 in Calm     35 % 0.00 in 410.00 W/m2
17:49 86.8 °F 55.9 °F 29.85 in Calm     35 % 0.00 in 394.00 W/m2
17:54 86.6 °F 54.1 °F 29.84 in Calm   1.0 mph 33 % 0.00 in 376.00 W/m2
17:59 86.5 °F 54.8 °F 29.85 in Calm     34 % 0.00 in 362.00 W/m2
18:04 86.3 °F 56.2 °F 29.84 in West 2.0 mph 2.0 mph 36 % 0.00 in 345.00 W/m2
18:09 86.1 °F 54.5 °F 29.85 in Calm   6.0 mph 34 % 0.00 in 330.00 W/m2
18:14 86.0 °F 55.2 °F 29.85 in Calm   3.0 mph 35 % 0.00 in 313.00 W/m2
18:19 85.8 °F 55.8 °F 29.84 in Calm   2.0 mph 36 % 0.00 in 297.00 W/m2
18:24 85.7 °F 55.7 °F 29.84 in Calm   1.0 mph 36 % 0.00 in 281.00 W/m2
18:29 85.6 °F 55.6 °F 29.84 in Calm   2.0 mph 36 % 0.00 in 269.00 W/m2
18:34 85.4 °F 56.2 °F 29.84 in West 1.0 mph 5.0 mph 37 % 0.00 in 255.00 W/m2
18:39 85.2 °F 56.0 °F 29.84 in Calm   5.0 mph 37 % 0.00 in 239.00 W/m2
18:44 85.0 °F 56.6 °F 29.84 in Calm   3.0 mph 38 % 0.00 in 221.00 W/m2
18:49 84.6 °F 56.9 °F 29.84 in Calm   2.0 mph 39 % 0.00 in 207.00 W/m2
18:54 84.2 °F 57.3 °F 29.84 in Calm   1.0 mph 40 % 0.00 in 193.00 W/m2
18:59 83.9 °F 57.0 °F 29.84 in Calm   1.0 mph 40 % 0.00 in 178.00 W/m2
19:04 83.4 °F 57.3 °F 29.84 in Calm   1.0 mph 41 % 0.00 in 160.00 W/m2
19:09 83.0 °F 58.2 °F 29.84 in Calm   1.0 mph 43 % 0.00 in 142.00 W/m2
19:15 82.6 °F 57.9 °F 29.84 in Calm   1.0 mph 43 % 0.00 in 123.00 W/m2
19:20 82.2 °F 58.1 °F 29.84 in Calm   1.0 mph 44 % 0.00 in 109.00 W/m2
19:25 81.7 °F 58.3 °F 29.84 in Calm   3.0 mph 45 % 0.00 in 90.00 W/m2
19:30 81.3 °F 58.6 °F 29.84 in Calm   3.0 mph 46 % 0.00 in 76.00 W/m2
19:35 80.9 °F 58.2 °F 29.84 in Calm   2.0 mph 46 % 0.00 in 60.00 W/m2
19:40 80.3 °F 57.7 °F 29.84 in Calm     46 % 0.00 in 47.00 W/m2
19:45 80.0 °F 57.4 °F 29.84 in Calm   2.0 mph 46 % 0.00 in 37.00 W/m2
19:50 79.6 °F 57.0 °F 29.84 in Calm   1.0 mph 46 % 0.00 in 28.00 W/m2
19:55 79.3 °F 57.3 °F 29.84 in Calm   2.0 mph 47 % 0.00 in 23.00 W/m2
20:00 78.8 °F 56.3 °F 29.84 in Calm   1.0 mph 46 % 0.00 in 18.00 W/m2
20:05 78.4 °F 55.9 °F 29.84 in Calm   2.0 mph 46 % 0.00 in 16.00 W/m2
20:10 78.1 °F 55.7 °F 29.84 in Calm   1.0 mph 46 % 0.00 in 12.00 W/m2
20:15 77.8 °F 55.4 °F 29.84 in Calm   3.0 mph 46 % 0.00 in 11.00 W/m2
20:16 77.7 °F 55.3 °F 29.85 in Calm     46 % 0.00 in 9.00 W/m2
20:21 77.4 °F 54.4 °F 29.85 in Calm   1.0 mph 45 % 0.00 in 7.00 W/m2
20:26 77.1 °F 54.2 °F 29.84 in Calm   1.0 mph 45 % 0.00 in 5.00 W/m2
20:31 76.8 °F 53.9 °F 29.84 in West 1.0 mph 1.0 mph 45 % 0.00 in 0.00 W/m2
20:36 76.5 °F 53.0 °F 29.84 in Calm     44 % 0.00 in 0.00 W/m2
20:41 76.3 °F 53.4 °F 29.84 in Calm     45 % 0.00 in 0.00 W/m2
20:46 76.2 °F 52.7 °F 29.84 in Calm     44 % 0.00 in 0.00 W/m2
20:51 76.0 °F 52.5 °F 29.84 in Calm     44 % 0.00 in 0.00 W/m2
20:56 75.9 °F 52.5 °F 29.85 in Calm     44 % 0.00 in 0.00 W/m2
21:01 75.8 °F 52.4 °F 29.84 in Calm     44 % 0.00 in 0.00 W/m2
21:06 75.7 °F 52.3 °F 29.85 in Calm     44 % 0.00 in 0.00 W/m2
21:11 75.6 °F 52.2 °F 29.85 in Calm     44 % 0.00 in 0.00 W/m2
21:16 75.5 °F 52.1 °F 29.85 in Calm     44 % 0.00 in 0.00 W/m2
21:21 75.4 °F 51.4 °F 29.85 in Calm     43 % 0.00 in 0.00 W/m2
21:26 75.3 °F 51.3 °F 29.85 in Calm     43 % 0.00 in 0.00 W/m2
21:31 75.3 °F 51.3 °F 29.85 in Calm     43 % 0.00 in 0.00 W/m2
21:36 75.2 °F 51.2 °F 29.85 in Calm     43 % 0.00 in 0.00 W/m2
21:41 75.1 °F 51.1 °F 29.85 in Calm     43 % 0.00 in 0.00 W/m2
21:46 75.1 °F 51.1 °F 29.86 in Calm     43 % 0.00 in 0.00 W/m2
21:51 75.0 °F 51.0 °F 29.86 in Calm     43 % 0.00 in 0.00 W/m2
21:56 75.0 °F 51.0 °F 29.86 in Calm   1.0 mph 43 % 0.00 in 0.00 W/m2
22:01 75.0 °F 51.0 °F 29.86 in Calm     43 % 0.00 in 0.00 W/m2
22:06 75.0 °F 51.0 °F 29.86 in Calm     43 % 0.00 in 0.00 W/m2
22:11 74.9 °F 50.9 °F 29.86 in Calm     43 % 0.00 in 0.00 W/m2
22:16 74.9 °F 50.9 °F 29.86 in Calm     43 % 0.00 in 0.00 W/m2
22:22 74.9 °F 50.9 °F 29.86 in Calm     43 % 0.00 in 0.00 W/m2
22:27 74.9 °F 51.5 °F 29.86 in Calm   3.0 mph 44 % 0.00 in 0.00 W/m2
22:32 74.8 °F 51.5 °F 29.86 in Calm     44 % 0.00 in 0.00 W/m2
22:37 74.8 °F 52.1 °F 29.86 in Calm   3.0 mph 45 % 0.00 in 0.00 W/m2
22:42 74.7 °F 52.0 °F 29.86 in Calm   2.0 mph 45 % 0.00 in 0.00 W/m2
22:47 74.7 °F 52.6 °F 29.86 in Calm   1.0 mph 46 % 0.00 in 0.00 W/m2
22:52 74.7 °F 53.2 °F 29.86 in SW 2.0 mph 4.0 mph 47 % 0.00 in 0.00 W/m2
22:57 74.7 °F 53.7 °F 29.86 in Calm   4.0 mph 48 % 0.00 in 0.00 W/m2
23:02 74.7 °F 53.7 °F 29.86 in Calm   1.0 mph 48 % 0.00 in 0.00 W/m2
23:07 74.6 °F 53.6 °F 29.86 in Calm   3.0 mph 48 % 0.00 in 0.00 W/m2
23:12 74.6 °F 53.6 °F 29.86 in Calm   1.0 mph 48 % 0.00 in 0.00 W/m2
23:17 74.6 °F 53.6 °F 29.86 in South 2.0 mph 4.0 mph 48 % 0.00 in 0.00 W/m2
23:22 74.6 °F 54.2 °F 29.85 in Calm   4.0 mph 49 % 0.00 in 0.00 W/m2
23:27 74.5 °F 54.1 °F 29.85 in Calm   4.0 mph 49 % 0.00 in 0.00 W/m2
23:32 74.5 °F 54.1 °F 29.85 in SSE 5.0 mph 5.0 mph 49 % 0.00 in 0.00 W/m2
23:37 74.4 °F 54.0 °F 29.85 in Calm   5.0 mph 49 % 0.00 in 0.00 W/m2
23:42 74.4 °F 54.0 °F 29.85 in SSE 2.0 mph 7.0 mph 49 % 0.00 in 0.00 W/m2
23:47 74.3 °F 54.5 °F 29.86 in SE 7.0 mph 8.0 mph 50 % 0.00 in 0.00 W/m2
23:52 74.3 °F 54.5 °F 29.86 in SE 5.0 mph 6.0 mph 50 % 0.00 in 0.00 W/m2
23:57 74.3 °F 54.5 °F 29.85 in SE 5.0 mph 7.0 mph 50 % 0.00 in 0.00 W/m2
Juneau County Weather
Compliments of Weather Underground - 4.5 mb
 WU-history PHP script courtesy of   Juneau County Weather.
powered by Cumulus v1.9.3 (1059)
Ambient Weather VWS v14.00
Top Contact Website Map Copyright © 2007 - 2018 Foresthillweather.com Never base important decisions on this or any weather information obtained from the Internet